owner,sensor,date,latitude,longitude,vertical_datum,wind_speed,wind_to_direction,wind_speed_of_gust,qcFlag 
TCOON,ioos:station:TCOON:146:1,2017-06-01T00:30:00Z,28.1324,-97.0345,0.0,6.5,106.0,8.6,'1111122,1111122,1111122' 
TCOON,ioos:station:TCOON:146:1,2017-06-01T01:30:00Z,28.1324,-97.0345,0.0,10.1,141.0,12.3,'1111122,1111122,1111122' 
TCOON,ioos:station:TCOON:146:1,2017-06-01T02:30:00Z,28.1324,-97.0345,0.0,3.9,153.0,5.2,'1111122,1111122,1111122' 
TCOON,ioos:station:TCOON:146:1,2017-06-01T03:30:00Z,28.1324,-97.0345,0.0,3.6,98.0,5.3,'1111122,1111122,1111122' 
TCOON,ioos:station:TCOON:146:1,2017-06-01T04:30:00Z,28.1324,-97.0345,0.0,3.9,118.0,5.5,'1111122,1111122,1111122' 
TCOON,ioos:station:TCOON:146:1,2017-06-01T05:30:00Z,28.1324,-97.0345,0.0,3.3,119.0,4.4,'1111122,1111122,1111122' 
TCOON,ioos:station:TCOON:146:1,2017-06-01T06:30:00Z,28.1324,-97.0345,0.0,5.0,96.0,6.4,'1111122,1111122,1111122' 
TCOON,ioos:station:TCOON:146:1,2017-06-01T07:30:00Z,28.1324,-97.0345,0.0,4.2,75.0,5.9,'1111122,1111122,1111122' 
TCOON,ioos:station:TCOON:146:1,2017-06-01T08:30:00Z,28.1324,-97.0345,0.0,6.0,85.0,7.3,'1111122,1111122,1111122' 
TCOON,ioos:station:TCOON:146:1,2017-06-01T09:30:00Z,28.1324,-97.0345,0.0,6.6,91.0,8.1,'1111122,1111122,1111122' 
TCOON,ioos:station:TCOON:146:1,2017-06-01T10:30:00Z,28.1324,-97.0345,0.0,8.4,93.0,10.0,'1111122,1111122,1111122' 
TCOON,ioos:station:TCOON:146:1,2017-06-01T11:30:00Z,28.1324,-97.0345,0.0,8.3,97.0,9.8,'1111122,1111122,1111122' 
TCOON,ioos:station:TCOON:146:1,2017-06-01T12:30:00Z,28.1324,-97.0345,0.0,7.9,97.0,9.1,'1111122,1111122,1111122' 
TCOON,ioos:station:TCOON:146:1,2017-06-01T13:30:00Z,28.1324,-97.0345,0.0,6.7,96.0,8.6,'1111122,1111122,1111122' 
TCOON,ioos:station:TCOON:146:1,2017-06-01T14:30:00Z,28.1324,-97.0345,0.0,7.5,93.0,8.9,'1111122,1111122,1111122' 
TCOON,ioos:station:TCOON:146:1,2017-06-01T15:30:00Z,28.1324,-97.0345,0.0,7.8,102.0,9.1,'1111122,1111122,1111122' 
TCOON,ioos:station:TCOON:146:1,2017-06-01T16:30:00Z,28.1324,-97.0345,0.0,5.0,81.0,8.9,'1111122,1111122,1111122' 
TCOON,ioos:station:TCOON:146:1,2017-06-01T17:30:00Z,28.1324,-97.0345,0.0,4.3,216.0,10.8,'1111122,1111122,1111122' 
TCOON,ioos:station:TCOON:146:1,2017-06-01T18:30:00Z,28.1324,-97.0345,0.0,4.4,186.0,8.0,'1111122,1111122,1111122' 
TCOON,ioos:station:TCOON:146:1,2017-06-01T19:30:00Z,28.1324,-97.0345,0.0,5.2,139.0,7.1,'1111122,1111122,1111122' 
TCOON,ioos:station:TCOON:146:1,2017-06-01T20:30:00Z,28.1324,-97.0345,0.0,5.5,133.0,6.4,'1111122,1111122,1111122' 
TCOON,ioos:station:TCOON:146:1,2017-06-01T21:30:00Z,28.1324,-97.0345,0.0,5.5,132.0,6.4,'1111122,1111122,1111122' 
TCOON,ioos:station:TCOON:146:1,2017-06-01T22:30:00Z,28.1324,-97.0345,0.0,6.0,114.0,7.6,'1111122,1111122,1111122' 
TCOON,ioos:station:TCOON:146:1,2017-06-01T23:30:00Z,28.1324,-97.0345,0.0,6.1,108.0,7.3,'1111122,1111122,1111122' 
TCOON,ioos:station:TCOON:146:1,2017-06-02T00:30:00Z,28.1324,-97.0345,0.0,6.2,109.0,7.9,'1111122,1111122,1111122' 
TCOON,ioos:station:TCOON:146:1,2017-06-02T01:30:00Z,28.1324,-97.0345,0.0,6.2,108.0,7.9,'1111122,1111122,1111122' 
TCOON,ioos:station:TCOON:146:1,2017-06-02T02:30:00Z,28.1324,-97.0345,0.0,6.6,109.0,8.5,'1111122,1111122,1111122' 
TCOON,ioos:station:TCOON:146:1,2017-06-02T03:30:00Z,28.1324,-97.0345,0.0,6.8,110.0,8.8,'1111122,1111122,1111122' 
TCOON,ioos:station:TCOON:146:1,2017-06-02T04:30:00Z,28.1324,-97.0345,0.0,5.8,108.0,7.1,'1111122,1111122,1111122' 
TCOON,ioos:station:TCOON:146:1,2017-06-02T05:30:00Z,28.1324,-97.0345,0.0,5.4,110.0,6.8,'1111122,1111122,1111122' 
TCOON,ioos:station:TCOON:146:1,2017-06-02T06:30:00Z,28.1324,-97.0345,0.0,5.3,101.0,6.3,'1111122,1111122,1111122' 
TCOON,ioos:station:TCOON:146:1,2017-06-02T07:30:00Z,28.1324,-97.0345,0.0,4.5,110.0,5.7,'1111122,1111122,1111122' 
TCOON,ioos:station:TCOON:146:1,2017-06-02T08:30:00Z,28.1324,-97.0345,0.0,4.8,110.0,6.0,'1111122,1111122,1111122' 
TCOON,ioos:station:TCOON:146:1,2017-06-02T09:30:00Z,28.1324,-97.0345,0.0,4.8,110.0,6.1,'1111122,1111122,1111122' 
TCOON,ioos:station:TCOON:146:1,2017-06-02T10:30:00Z,28.1324,-97.0345,0.0,3.8,105.0,4.8,'1111122,1111122,1111122' 
TCOON,ioos:station:TCOON:146:1,2017-06-02T11:30:00Z,28.1324,-97.0345,0.0,2.1,37.0,2.6,'1111122,1111122,1111122' 
TCOON,ioos:station:TCOON:146:1,2017-06-02T12:30:00Z,28.1324,-97.0345,0.0,3.0,48.0,3.7,'1111122,1111122,1111122' 
TCOON,ioos:station:TCOON:146:1,2017-06-02T13:30:00Z,28.1324,-97.0345,0.0,2.7,56.0,3.6,'1111122,1111122,1111122' 
TCOON,ioos:station:TCOON:146:1,2017-06-02T14:30:00Z,28.1324,-97.0345,0.0,1.3,62.0,3.0,'1111122,1111122,1111122' 
TCOON,ioos:station:TCOON:146:1,2017-06-02T15:30:00Z,28.1324,-97.0345,0.0,0.7,350.0,1.1,'1111122,1111122,1111122' 
TCOON,ioos:station:TCOON:146:1,2017-06-02T16:30:00Z,28.1324,-97.0345,0.0,2.5,133.0,3.2,'1111122,1111122,1111122' 
TCOON,ioos:station:TCOON:146:1,2017-06-02T17:30:00Z,28.1324,-97.0345,0.0,3.9,117.0,5.0,'1111122,1111122,1111122' 
TCOON,ioos:station:TCOON:146:1,2017-06-02T18:30:00Z,28.1324,-97.0345,0.0,3.1,119.0,4.4,'1111122,1111122,1111122' 
TCOON,ioos:station:TCOON:146:1,2017-06-02T19:30:00Z,28.1324,-97.0345,0.0,4.3,128.0,5.4,'1111122,1111122,1111122' 
TCOON,ioos:station:TCOON:146:1,2017-06-02T20:30:00Z,28.1324,-97.0345,0.0,4.3,123.0,5.0,'1111122,1111122,1111122' 
TCOON,ioos:station:TCOON:146:1,2017-06-02T21:30:00Z,28.1324,-97.0345,0.0,5.7,123.0,6.8,'1111122,1111122,1111122' 
TCOON,ioos:station:TCOON:146:1,2017-06-02T22:30:00Z,28.1324,-97.0345,0.0,7.1,114.0,8.5,'1111122,1111122,1111122' 
TCOON,ioos:station:TCOON:146:1,2017-06-02T23:30:00Z,28.1324,-97.0345,0.0,7.6,105.0,9.3,'1111122,1111122,1111122' 
TCOON,ioos:station:TCOON:146:1,2017-06-03T00:30:00Z,28.1324,-97.0345,0.0,7.0,109.0,8.5,'1111122,1111122,1111122' 
TCOON,ioos:station:TCOON:146:1,2017-06-03T01:30:00Z,28.1324,-97.0345,0.0,5.7,116.0,6.6,'1111122,1111122,1111122' 
TCOON,ioos:station:TCOON:146:1,2017-06-03T02:30:00Z,28.1324,-97.0345,0.0,5.6,109.0,6.9,'1111122,1111122,1111122' 
TCOON,ioos:station:TCOON:146:1,2017-06-03T03:30:00Z,28.1324,-97.0345,0.0,5.4,111.0,6.7,'1111122,1111122,1111122' 
TCOON,ioos:station:TCOON:146:1,2017-06-03T04:30:00Z,28.1324,-97.0345,0.0,5.5,108.0,6.9,'1111122,1111122,1111122' 
TCOON,ioos:station:TCOON:146:1,2017-06-03T05:30:00Z,28.1324,-97.0345,0.0,5.8,95.0,6.8,'1111122,1111122,1111122' 
TCOON,ioos:station:TCOON:146:1,2017-06-03T06:30:00Z,28.1324,-97.0345,0.0,4.3,106.0,5.6,'1111122,1111122,1111122' 
TCOON,ioos:station:TCOON:146:1,2017-06-03T07:30:00Z,28.1324,-97.0345,0.0,5.5,111.0,6.7,'1111122,1111122,1111122' 
TCOON,ioos:station:TCOON:146:1,2017-06-03T08:30:00Z,28.1324,-97.0345,0.0,4.9,118.0,6.0,'1111122,1111122,1111122' 
TCOON,ioos:station:TCOON:146:1,2017-06-03T09:30:00Z,28.1324,-97.0345,0.0,5.0,108.0,6.3,'1111122,1111122,1111122' 
TCOON,ioos:station:TCOON:146:1,2017-06-03T10:30:00Z,28.1324,-97.0345,0.0,4.9,107.0,6.0,'1111122,1111122,1111122' 
TCOON,ioos:station:TCOON:146:1,2017-06-03T11:30:00Z,28.1324,-97.0345,0.0,3.6,120.0,4.5,'1111122,1111122,1111122' 
TCOON,ioos:station:TCOON:146:1,2017-06-03T12:30:00Z,28.1324,-97.0345,0.0,3.0,99.0,3.8,'1111122,1111122,1111122' 
TCOON,ioos:station:TCOON:146:1,2017-06-03T13:30:00Z,28.1324,-97.0345,0.0,2.8,52.0,3.4,'1111122,1111122,1111122' 
TCOON,ioos:station:TCOON:146:1,2017-06-03T14:30:00Z,28.1324,-97.0345,0.0,3.2,103.0,4.0,'1111122,1111122,1111122' 
TCOON,ioos:station:TCOON:146:1,2017-06-03T15:30:00Z,28.1324,-97.0345,0.0,2.9,120.0,4.6,'1111122,1111122,1111122' 
TCOON,ioos:station:TCOON:146:1,2017-06-03T16:30:00Z,28.1324,-97.0345,0.0,3.7,115.0,4.8,'1111122,1111122,1111122' 
TCOON,ioos:station:TCOON:146:1,2017-06-03T17:30:00Z,28.1324,-97.0345,0.0,3.7,127.0,4.4,'1111122,1111122,1111122' 
TCOON,ioos:station:TCOON:146:1,2017-06-03T18:30:00Z,28.1324,-97.0345,0.0,4.5,133.0,5.5,'1111122,1111122,1111122' 
TCOON,ioos:station:TCOON:146:1,2017-06-03T19:30:00Z,28.1324,-97.0345,0.0,4.2,130.0,5.2,'1111122,1111122,1111122' 
TCOON,ioos:station:TCOON:146:1,2017-06-03T20:30:00Z,28.1324,-97.0345,0.0,4.5,131.0,5.5,'1111122,1111122,1111122' 
TCOON,ioos:station:TCOON:146:1,2017-06-03T21:30:00Z,28.1324,-97.0345,0.0,5.2,128.0,6.3,'1111122,1111122,1111122' 
TCOON,ioos:station:TCOON:146:1,2017-06-03T22:30:00Z,28.1324,-97.0345,0.0,4.6,142.0,5.6,'1111122,1111122,1111122' 
TCOON,ioos:station:TCOON:146:1,2017-06-03T23:30:00Z,28.1324,-97.0345,0.0,5.3,147.0,6.3,'1111122,1111122,1111122' 
TCOON,ioos:station:TCOON:146:1,2017-06-04T00:30:00Z,28.1324,-97.0345,0.0,5.7,146.0,6.8,'1111122,1111122,1111122' 
TCOON,ioos:station:TCOON:146:1,2017-06-04T01:30:00Z,28.1324,-97.0345,0.0,5.7,126.0,6.8,'1111122,1111122,1111122' 
TCOON,ioos:station:TCOON:146:1,2017-06-04T02:30:00Z,28.1324,-97.0345,0.0,6.1,110.0,8.4,'1111122,1111122,1111122' 
TCOON,ioos:station:TCOON:146:1,2017-06-04T03:30:00Z,28.1324,-97.0345,0.0,4.4,135.0,5.9,'1111122,1111122,1111122' 
TCOON,ioos:station:TCOON:146:1,2017-06-04T04:30:00Z,28.1324,-97.0345,0.0,3.6,133.0,4.4,'1111122,1111122,1111122' 
TCOON,ioos:station:TCOON:146:1,2017-06-04T05:30:00Z,28.1324,-97.0345,0.0,4.5,137.0,5.2,'1111122,1111122,1111122' 
TCOON,ioos:station:TCOON:146:1,2017-06-04T06:30:00Z,28.1324,-97.0345,0.0,4.9,146.0,7.1,'1111122,1111122,1111122' 
TCOON,ioos:station:TCOON:146:1,2017-06-04T07:30:00Z,28.1324,-97.0345,0.0,2.6,174.0,3.3,'1111122,1111122,1111122' 
TCOON,ioos:station:TCOON:146:1,2017-06-04T08:30:00Z,28.1324,-97.0345,0.0,2.9,207.0,3.7,'1111122,1111122,1111122' 
TCOON,ioos:station:TCOON:146:1,2017-06-04T09:30:00Z,28.1324,-97.0345,0.0,4.1,172.0,5.2,'1111122,1111122,1111122' 
TCOON,ioos:station:TCOON:146:1,2017-06-04T10:30:00Z,28.1324,-97.0345,0.0,2.6,219.0,3.5,'1111122,1111122,1111122' 
TCOON,ioos:station:TCOON:146:1,2017-06-04T11:30:00Z,28.1324,-97.0345,0.0,2.3,238.0,3.2,'1111122,1111122,1111122' 
TCOON,ioos:station:TCOON:146:1,2017-06-04T12:30:00Z,28.1324,-97.0345,0.0,2.4,350.0,2.9,'1111122,1111122,1111122' 
TCOON,ioos:station:TCOON:146:1,2017-06-04T13:30:00Z,28.1324,-97.0345,0.0,1.6,30.0,2.1,'1111122,1111122,1111122' 
TCOON,ioos:station:TCOON:146:1,2017-06-04T14:30:00Z,28.1324,-97.0345,0.0,2.6,284.0,3.3,'1111122,1111122,1111122' 
TCOON,ioos:station:TCOON:146:1,2017-06-04T15:30:00Z,28.1324,-97.0345,0.0,2.3,243.0,3.1,'1111122,1111122,1111122' 
TCOON,ioos:station:TCOON:146:1,2017-06-04T16:30:00Z,28.1324,-97.0345,0.0,3.5,258.0,4.4,'1111122,1111122,1111122' 
TCOON,ioos:station:TCOON:146:1,2017-06-04T17:30:00Z,28.1324,-97.0345,0.0,3.1,251.0,3.7,'1111122,1111122,1111122' 
TCOON,ioos:station:TCOON:146:1,2017-06-04T18:30:00Z,28.1324,-97.0345,0.0,1.9,216.0,2.8,'1111122,1111122,1111122' 
TCOON,ioos:station:TCOON:146:1,2017-06-04T19:30:00Z,28.1324,-97.0345,0.0,2.3,188.0,3.0,'1111122,1111122,1111122' 
TCOON,ioos:station:TCOON:146:1,2017-06-04T20:30:00Z,28.1324,-97.0345,0.0,4.4,134.0,5.7,'1111122,1111122,1111122' 
TCOON,ioos:station:TCOON:146:1,2017-06-04T21:30:00Z,28.1324,-97.0345,0.0,4.3,138.0,5.3,'1111122,1111122,1111122' 
TCOON,ioos:station:TCOON:146:1,2017-06-04T22:30:00Z,28.1324,-97.0345,0.0,5.9,80.0,7.7,'1111122,1111122,1111122' 
TCOON,ioos:station:TCOON:146:1,2017-06-04T23:30:00Z,28.1324,-97.0345,0.0,4.8,115.0,5.8,'1111122,1111122,1111122' 
TCOON,ioos:station:TCOON:146:1,2017-06-05T00:30:00Z,28.1324,-97.0345,0.0,5.1,125.0,7.4,'1111122,1111122,1111122' 
TCOON,ioos:station:TCOON:146:1,2017-06-05T01:30:00Z,28.1324,-97.0345,0.0,4.6,113.0,5.8,'1111122,1111122,1111122' 
TCOON,ioos:station:TCOON:146:1,2017-06-05T02:30:00Z,28.1324,-97.0345,0.0,4.8,66.0,7.3,'1111122,1111122,1111122' 
TCOON,ioos:station:TCOON:146:1,2017-06-05T03:30:00Z,28.1324,-97.0345,0.0,9.2,141.0,13.1,'1111122,1111122,1111122' 
TCOON,ioos:station:TCOON:146:1,2017-06-05T04:30:00Z,28.1324,-97.0345,0.0,2.3,143.0,4.6,'1111122,1111122,1111122' 
TCOON,ioos:station:TCOON:146:1,2017-06-05T05:30:00Z,28.1324,-97.0345,0.0,4.3,166.0,5.9,'1111122,1111122,1111122' 
TCOON,ioos:station:TCOON:146:1,2017-06-05T06:30:00Z,28.1324,-97.0345,0.0,3.6,155.0,4.9,'1111122,1111122,1111122' 
TCOON,ioos:station:TCOON:146:1,2017-06-05T07:30:00Z,28.1324,-97.0345,0.0,3.8,179.0,4.4,'1111122,1111122,1111122' 
TCOON,ioos:station:TCOON:146:1,2017-06-05T08:30:00Z,28.1324,-97.0345,0.0,2.4,177.0,3.9,'1111122,1111122,1111122' 
TCOON,ioos:station:TCOON:146:1,2017-06-05T09:30:00Z,28.1324,-97.0345,0.0,2.6,200.0,3.4,'1111122,1111122,1111122' 
TCOON,ioos:station:TCOON:146:1,2017-06-05T10:30:00Z,28.1324,-97.0345,0.0,5.1,203.0,6.3,'1111122,1111122,1111122' 
TCOON,ioos:station:TCOON:146:1,2017-06-05T11:30:00Z,28.1324,-97.0345,0.0,7.4,232.0,9.0,'1111122,1111122,1111122' 
TCOON,ioos:station:TCOON:146:1,2017-06-05T12:30:00Z,28.1324,-97.0345,0.0,5.2,258.0,6.2,'1111122,1111122,1111122' 
TCOON,ioos:station:TCOON:146:1,2017-06-05T13:30:00Z,28.1324,-97.0345,0.0,3.6,309.0,5.7,'1111122,1111122,1111122' 
TCOON,ioos:station:TCOON:146:1,2017-06-05T14:30:00Z,28.1324,-97.0345,0.0,2.3,289.0,3.4,'1111122,1111122,1111122' 
TCOON,ioos:station:TCOON:146:1,2017-06-05T15:30:00Z,28.1324,-97.0345,0.0,0.5,240.0,1.5,'1111122,1111122,1111122' 
TCOON,ioos:station:TCOON:146:1,2017-06-05T16:30:00Z,28.1324,-97.0345,0.0,2.6,234.0,3.9,'1111122,1111122,1111122' 
TCOON,ioos:station:TCOON:146:1,2017-06-05T17:30:00Z,28.1324,-97.0345,0.0,0.7,238.0,1.5,'1111122,1111122,1111122' 
TCOON,ioos:station:TCOON:146:1,2017-06-05T18:30:00Z,28.1324,-97.0345,0.0,4.9,351.0,7.4,'1111122,1111122,1111122' 
TCOON,ioos:station:TCOON:146:1,2017-06-05T19:30:00Z,28.1324,-97.0345,0.0,9.5,110.0,12.0,'1111122,1111122,1111122' 
TCOON,ioos:station:TCOON:146:1,2017-06-05T20:30:00Z,28.1324,-97.0345,0.0,7.5,102.0,9.2,'1111122,1111122,1111122' 
TCOON,ioos:station:TCOON:146:1,2017-06-05T21:30:00Z,28.1324,-97.0345,0.0,5.0,112.0,5.9,'1111122,1111122,1111122' 
TCOON,ioos:station:TCOON:146:1,2017-06-05T22:30:00Z,28.1324,-97.0345,0.0,6.2,156.0,7.6,'1111122,1111122,1111122' 
TCOON,ioos:station:TCOON:146:1,2017-06-05T23:30:00Z,28.1324,-97.0345,0.0,4.6,146.0,6.0,'1111122,1111122,1111122' 
TCOON,ioos:station:TCOON:146:1,2017-06-06T00:30:00Z,28.1324,-97.0345,0.0,8.0,79.0,16.1,'1111122,1111122,1111122' 
TCOON,ioos:station:TCOON:146:1,2017-06-06T01:30:00Z,28.1324,-97.0345,0.0,3.4,280.0,4.7,'1111122,1111122,1111122' 
TCOON,ioos:station:TCOON:146:1,2017-06-06T02:30:00Z,28.1324,-97.0345,0.0,1.7,254.0,2.4,'1111122,1111122,1111122' 
TCOON,ioos:station:TCOON:146:1,2017-06-06T03:30:00Z,28.1324,-97.0345,0.0,3.5,299.0,4.8,'1111122,1111122,1111122' 
TCOON,ioos:station:TCOON:146:1,2017-06-06T04:30:00Z,28.1324,-97.0345,0.0,4.7,318.0,5.8,'1111122,1111122,1111122' 
TCOON,ioos:station:TCOON:146:1,2017-06-06T05:30:00Z,28.1324,-97.0345,0.0,3.7,356.0,5.4,'1111122,1111122,1111122' 
TCOON,ioos:station:TCOON:146:1,2017-06-06T06:30:00Z,28.1324,-97.0345,0.0,1.1,18.0,2.0,'1111122,1111122,1111122' 
TCOON,ioos:station:TCOON:146:1,2017-06-06T07:30:00Z,28.1324,-97.0345,0.0,1.5,41.0,2.1,'1111122,1111122,1111122' 
TCOON,ioos:station:TCOON:146:1,2017-06-06T08:30:00Z,28.1324,-97.0345,0.0,2.1,338.0,3.0,'1111122,1111122,1111122' 
TCOON,ioos:station:TCOON:146:1,2017-06-06T09:30:00Z,28.1324,-97.0345,0.0,3.5,337.0,4.6,'1111122,1111122,1111122' 
TCOON,ioos:station:TCOON:146:1,2017-06-06T10:30:00Z,28.1324,-97.0345,0.0,3.9,328.0,5.1,'1111122,1111122,1111122' 
TCOON,ioos:station:TCOON:146:1,2017-06-06T11:30:00Z,28.1324,-97.0345,0.0,4.6,322.0,5.3,'1111122,1111122,1111122' 
TCOON,ioos:station:TCOON:146:1,2017-06-06T12:30:00Z,28.1324,-97.0345,0.0,3.7,316.0,4.6,'1111122,1111122,1111122' 
TCOON,ioos:station:TCOON:146:1,2017-06-06T13:30:00Z,28.1324,-97.0345,0.0,4.2,334.0,5.4,'1111122,1111122,1111122' 
TCOON,ioos:station:TCOON:146:1,2017-06-06T14:30:00Z,28.1324,-97.0345,0.0,3.3,341.0,4.2,'1111122,1111122,1111122' 
TCOON,ioos:station:TCOON:146:1,2017-06-06T15:30:00Z,28.1324,-97.0345,0.0,4.0,340.0,5.4,'1111122,1111122,1111122' 
TCOON,ioos:station:TCOON:146:1,2017-06-06T16:30:00Z,28.1324,-97.0345,0.0,5.0,342.0,6.2,'1111122,1111122,1111122' 
TCOON,ioos:station:TCOON:146:1,2017-06-06T17:30:00Z,28.1324,-97.0345,0.0,4.8,347.0,6.0,'1111122,1111122,1111122' 
TCOON,ioos:station:TCOON:146:1,2017-06-06T18:30:00Z,28.1324,-97.0345,0.0,4.8,351.0,6.2,'1111122,1111122,1111122' 
TCOON,ioos:station:TCOON:146:1,2017-06-06T19:30:00Z,28.1324,-97.0345,0.0,5.4,343.0,7.4,'1111122,1111122,1111122' 
TCOON,ioos:station:TCOON:146:1,2017-06-06T20:30:00Z,28.1324,-97.0345,0.0,5.2,326.0,6.9,'1111122,1111122,1111122' 
TCOON,ioos:station:TCOON:146:1,2017-06-06T21:30:00Z,28.1324,-97.0345,0.0,5.3,328.0,6.6,'1111122,1111122,1111122' 
TCOON,ioos:station:TCOON:146:1,2017-06-06T22:30:00Z,28.1324,-97.0345,0.0,6.8,341.0,8.2,'1111122,1111122,1111122' 
TCOON,ioos:station:TCOON:146:1,2017-06-06T23:30:00Z,28.1324,-97.0345,0.0,7.3,336.0,9.1,'1111122,1111122,1111122' 
TCOON,ioos:station:TCOON:146:1,2017-06-07T00:30:00Z,28.1324,-97.0345,0.0,6.9,3.0,8.0,'1111122,1111122,1111122' 
TCOON,ioos:station:TCOON:146:1,2017-06-07T01:30:00Z,28.1324,-97.0345,0.0,6.4,10.0,7.4,'1111122,1111122,1111122' 
TCOON,ioos:station:TCOON:146:1,2017-06-07T02:30:00Z,28.1324,-97.0345,0.0,5.2,10.0,6.7,'1111122,1111122,1111122' 
TCOON,ioos:station:TCOON:146:1,2017-06-07T03:30:00Z,28.1324,-97.0345,0.0,5.1,5.0,6.1,'1111122,1111122,1111122' 
TCOON,ioos:station:TCOON:146:1,2017-06-07T04:30:00Z,28.1324,-97.0345,0.0,4.8,1.0,5.7,'1111122,1111122,1111122' 
TCOON,ioos:station:TCOON:146:1,2017-06-07T05:30:00Z,28.1324,-97.0345,0.0,4.8,359.0,5.6,'1111122,1111122,1111122' 
TCOON,ioos:station:TCOON:146:1,2017-06-07T06:30:00Z,28.1324,-97.0345,0.0,4.7,347.0,5.6,'1111122,1111122,1111122' 
TCOON,ioos:station:TCOON:146:1,2017-06-07T07:30:00Z,28.1324,-97.0345,0.0,5.4,6.0,6.5,'1111122,1111122,1111122' 
TCOON,ioos:station:TCOON:146:1,2017-06-07T08:30:00Z,28.1324,-97.0345,0.0,5.5,9.0,6.6,'1111122,1111122,1111122' 
TCOON,ioos:station:TCOON:146:1,2017-06-07T09:30:00Z,28.1324,-97.0345,0.0,4.4,4.0,5.1,'1111122,1111122,1111122' 
TCOON,ioos:station:TCOON:146:1,2017-06-07T10:30:00Z,28.1324,-97.0345,0.0,3.9,11.0,4.6,'1111122,1111122,1111122' 
TCOON,ioos:station:TCOON:146:1,2017-06-07T11:30:00Z,28.1324,-97.0345,0.0,4.7,2.0,5.6,'1111122,1111122,1111122' 
TCOON,ioos:station:TCOON:146:1,2017-06-07T12:30:00Z,28.1324,-97.0345,0.0,4.5,359.0,5.2,'1111122,1111122,1111122' 
TCOON,ioos:station:TCOON:146:1,2017-06-07T13:30:00Z,28.1324,-97.0345,0.0,4.8,357.0,5.6,'1111122,1111122,1111122' 
TCOON,ioos:station:TCOON:146:1,2017-06-07T14:30:00Z,28.1324,-97.0345,0.0,3.9,359.0,5.1,'1111122,1111122,1111122' 
TCOON,ioos:station:TCOON:146:1,2017-06-07T15:30:00Z,28.1324,-97.0345,0.0,4.8,2.0,6.3,'1111122,1111122,1111122' 
TCOON,ioos:station:TCOON:146:1,2017-06-07T16:30:00Z,28.1324,-97.0345,0.0,4.8,12.0,6.4,'1111122,1111122,1111122' 
TCOON,ioos:station:TCOON:146:1,2017-06-07T17:30:00Z,28.1324,-97.0345,0.0,2.9,24.0,4.4,'1111122,1111122,1111122' 
TCOON,ioos:station:TCOON:146:1,2017-06-07T18:30:00Z,28.1324,-97.0345,0.0,4.0,9.0,5.9,'1111122,1111122,1111122' 
TCOON,ioos:station:TCOON:146:1,2017-06-07T19:30:00Z,28.1324,-97.0345,0.0,3.8,359.0,5.2,'1111122,1111122,1111122' 
TCOON,ioos:station:TCOON:146:1,2017-06-07T20:30:00Z,28.1324,-97.0345,0.0,4.0,14.0,5.4,'1111122,1111122,1111122' 
TCOON,ioos:station:TCOON:146:1,2017-06-07T21:30:00Z,28.1324,-97.0345,0.0,5.8,18.0,8.3,'1111122,1111122,1111122' 
TCOON,ioos:station:TCOON:146:1,2017-06-07T22:30:00Z,28.1324,-97.0345,0.0,5.9,24.0,8.9,'1111122,1111122,1111122' 
TCOON,ioos:station:TCOON:146:1,2017-06-07T23:30:00Z,28.1324,-97.0345,0.0,4.9,28.0,7.0,'1111122,1111122,1111122' 
TCOON,ioos:station:TCOON:146:1,2017-06-08T00:30:00Z,28.1324,-97.0345,0.0,4.2,43.0,5.3,'1111122,1111122,1111122' 
TCOON,ioos:station:TCOON:146:1,2017-06-08T01:30:00Z,28.1324,-97.0345,0.0,3.9,106.0,6.3,'1111122,1111122,1111122' 
TCOON,ioos:station:TCOON:146:1,2017-06-08T02:30:00Z,28.1324,-97.0345,0.0,5.1,146.0,5.7,'1111122,1111122,1111122' 
TCOON,ioos:station:TCOON:146:1,2017-06-08T03:30:00Z,28.1324,-97.0345,0.0,4.8,148.0,5.5,'1111122,1111122,1111122' 
TCOON,ioos:station:TCOON:146:1,2017-06-08T04:30:00Z,28.1324,-97.0345,0.0,2.9,176.0,3.8,'1111122,1111122,1111122' 
TCOON,ioos:station:TCOON:146:1,2017-06-08T05:30:00Z,28.1324,-97.0345,0.0,3.0,188.0,3.8,'1111122,1111122,1111122' 
TCOON,ioos:station:TCOON:146:1,2017-06-08T06:30:00Z,28.1324,-97.0345,0.0,2.7,191.0,3.3,'1111122,1111122,1111122' 
TCOON,ioos:station:TCOON:146:1,2017-06-08T07:30:00Z,28.1324,-97.0345,0.0,3.1,194.0,3.6,'1111122,1111122,1111122' 
TCOON,ioos:station:TCOON:146:1,2017-06-08T08:30:00Z,28.1324,-97.0345,0.0,3.4,195.0,4.3,'1111122,1111122,1111122' 
TCOON,ioos:station:TCOON:146:1,2017-06-08T09:30:00Z,28.1324,-97.0345,0.0,2.8,180.0,3.5,'1111122,1111122,1111122' 
TCOON,ioos:station:TCOON:146:1,2017-06-08T10:30:00Z,28.1324,-97.0345,0.0,2.2,238.0,3.0,'1111122,1111122,1111122' 
TCOON,ioos:station:TCOON:146:1,2017-06-08T11:30:00Z,28.1324,-97.0345,0.0,1.6,259.0,2.7,'1111122,1111122,1111122' 
TCOON,ioos:station:TCOON:146:1,2017-06-08T12:30:00Z,28.1324,-97.0345,0.0,2.4,306.0,2.9,'1111122,1111122,1111122' 
TCOON,ioos:station:TCOON:146:1,2017-06-08T13:30:00Z,28.1324,-97.0345,0.0,1.8,357.0,2.2,'1111122,1111122,1111122' 
TCOON,ioos:station:TCOON:146:1,2017-06-08T14:30:00Z,28.1324,-97.0345,0.0,0.7,340.0,1.2,'1111122,1111122,1111122' 
TCOON,ioos:station:TCOON:146:1,2017-06-08T15:30:00Z,28.1324,-97.0345,0.0,2.5,81.0,3.7,'1111122,1111122,1111122' 
TCOON,ioos:station:TCOON:146:1,2017-06-08T16:30:00Z,28.1324,-97.0345,0.0,2.4,109.0,3.3,'1111122,1111122,1111122' 
TCOON,ioos:station:TCOON:146:1,2017-06-08T17:30:00Z,28.1324,-97.0345,0.0,1.6,103.0,2.2,'1111122,1111122,1111122' 
TCOON,ioos:station:TCOON:146:1,2017-06-08T18:30:00Z,28.1324,-97.0345,0.0,3.4,126.0,4.9,'1111122,1111122,1111122' 
TCOON,ioos:station:TCOON:146:1,2017-06-08T19:30:00Z,28.1324,-97.0345,0.0,3.3,92.0,8.6,'1111122,1111122,1111122' 
TCOON,ioos:station:TCOON:146:1,2017-06-08T20:30:00Z,28.1324,-97.0345,0.0,5.9,156.0,7.3,'1111122,1111122,1111122' 
TCOON,ioos:station:TCOON:146:1,2017-06-08T21:30:00Z,28.1324,-97.0345,0.0,4.8,125.0,5.9,'1111122,1111122,1111122' 
TCOON,ioos:station:TCOON:146:1,2017-06-08T22:30:00Z,28.1324,-97.0345,0.0,4.4,124.0,5.6,'1111122,1111122,1111122' 
TCOON,ioos:station:TCOON:146:1,2017-06-08T23:30:00Z,28.1324,-97.0345,0.0,4.1,118.0,5.3,'1111122,1111122,1111122' 
TCOON,ioos:station:TCOON:146:1,2017-06-09T00:30:00Z,28.1324,-97.0345,0.0,5.2,113.0,6.6,'1111122,1111122,1111122' 
TCOON,ioos:station:TCOON:146:1,2017-06-09T01:30:00Z,28.1324,-97.0345,0.0,4.7,109.0,6.7,'1111122,1111122,1111122' 
TCOON,ioos:station:TCOON:146:1,2017-06-09T02:30:00Z,28.1324,-97.0345,0.0,4.7,121.0,6.1,'1111122,1111122,1111122' 
TCOON,ioos:station:TCOON:146:1,2017-06-09T03:30:00Z,28.1324,-97.0345,0.0,5.3,116.0,6.9,'1111122,1111122,1111122' 
TCOON,ioos:station:TCOON:146:1,2017-06-09T04:30:00Z,28.1324,-97.0345,0.0,6.6,116.0,8.5,'1111122,1111122,1111122' 
TCOON,ioos:station:TCOON:146:1,2017-06-09T05:30:00Z,28.1324,-97.0345,0.0,6.7,113.0,8.1,'1111122,1111122,1111122' 
TCOON,ioos:station:TCOON:146:1,2017-06-09T06:30:00Z,28.1324,-97.0345,0.0,7.8,125.0,9.5,'1111122,1111122,1111122' 
TCOON,ioos:station:TCOON:146:1,2017-06-09T07:30:00Z,28.1324,-97.0345,0.0,8.4,127.0,10.1,'1111122,1111122,1111122' 
TCOON,ioos:station:TCOON:146:1,2017-06-09T08:30:00Z,28.1324,-97.0345,0.0,8.3,131.0,10.3,'1111122,1111122,1111122' 
TCOON,ioos:station:TCOON:146:1,2017-06-09T09:30:00Z,28.1324,-97.0345,0.0,7.8,138.0,9.7,'1111122,1111122,1111122' 
TCOON,ioos:station:TCOON:146:1,2017-06-09T10:30:00Z,28.1324,-97.0345,0.0,6.7,142.0,8.1,'1111122,1111122,1111122' 
TCOON,ioos:station:TCOON:146:1,2017-06-09T11:30:00Z,28.1324,-97.0345,0.0,6.0,150.0,7.4,'1111122,1111122,1111122' 
TCOON,ioos:station:TCOON:146:1,2017-06-09T12:30:00Z,28.1324,-97.0345,0.0,5.2,134.0,6.4,'1111122,1111122,1111122' 
TCOON,ioos:station:TCOON:146:1,2017-06-09T13:30:00Z,28.1324,-97.0345,0.0,5.0,143.0,6.3,'1111122,1111122,1111122' 
TCOON,ioos:station:TCOON:146:1,2017-06-09T14:30:00Z,28.1324,-97.0345,0.0,3.7,129.0,4.9,'1111122,1111122,1111122' 
TCOON,ioos:station:TCOON:146:1,2017-06-09T16:30:00Z,28.1324,-97.0345,0.0,4.8,137.0,6.0,'1111122,1111122,1111122' 
TCOON,ioos:station:TCOON:146:1,2017-06-09T17:30:00Z,28.1324,-97.0345,0.0,4.9,127.0,6.4,'1111122,1111122,1111122' 